COSMOS 1261 DEB, 27796

Orbit data source: Space-Track

COSMOS 1261 DEB, 27796 is space debris in HEO originally from a launch on Tue, 31 Mar 1981 UTC launched from the Plesetsk Missile And Space Complex (PKMTR). Debris objects in space refer to the collection of defunct objects orbiting the Earth. Examples of debris include non-operational satellites, rocket bodies, and fragments generated from explosions, collisions, or faulty payload assembly.

Loading next visibility...
Identifier
27796, 1981-031H
Orbit
HEO
Country
Flag of CISCIS
Related business
Manufacturer
Unknown
Mission
Spacecraft
Bus & Motor
Unknown
Mass
Unknown
Launch date (UTC)
1981-03-31 (45 years ago)
Launch vehicle
Unknown
Launch site
Plesetsk Missile And Space Complex (PKMTR)
Object type
Payload
Rocket body
Debris
Shape & HBR
Unknown shape, 0.5 m
Radar Cross Section
Medium (>0.1 m² and <1 m²)

Expand to show TLE details & history
Last TLE update: 2 days ago

TLE from 2 days ago
0 COSMOS 1261 DEB
1 27796U 81031H   25353.00694179 -.00000986  00000-0  00000-0 0  9992
2 27796  65.5283  14.1690 6938664  19.2966 357.6711  2.01765745182231
Epoch: 2025-12-19T00:09Z
TLE epoch observation values (Epoch: 2025-12-19T00:09:59.770Z)
Latitude
0.00017°
Longitude
-76.18978°
Altitude
1,918.965 km
Speed
9.002 km/s
True Right ascension
00h 56m 39s
True Declination
0° 00' 01"
Sunlit
Object was in daylight at epoch
Visualization orbit readout
Latitude
Unknown
Longitude
Unknown
Altitude
Unknown
Speed
Unknown
Apparent Right ascension
Unknown
Apparent Declination
Unknown
Sunlit
N/A
Visualization observer readout
Local Sidereal Time
16:50:19
Azimuth
Unknown
Elevation
Unknown
Doppler factor
Unknown
Orbital elements
Apogee altitude
38,430.859 km
Perigee altitude
1,720.223 km
Semi-major axis
26,453.678 km
Eccentricity
0.69387
Inclination
65.5283°
RAAN
14.169°
Arg. of periapsis
19.2966°
True anomaly
342.33746°
Mean anomaly
357.6711°
Eccentric anomaly
352.44217°
Mean motion
0.50445 °/min
Orbital period
713.66 mins
BSTAR
0
Loading maneuver chart data...
Computing Atmospheric mass density...
Loading historical data...
Loading historical data...
Loading historical data...
Loading historical data...
Loading historical data...
Loading historical data...
Loading historical data...

Documentation

Showing up to 5 results
|